FW6525 Weather Reports


time (UTC)temp
C
wind
direction
speed
KPH
gust
KPH
rain 1hr
cm
rain 24hr
cm
rain mn
cm
humidity
%
barometer
mb
20260506190355 19 24 1.6 3.2 0.00 0.00 0.00 62 1002.0
20260506185854 19 236 1.6 3.2 0.00 0.00 0.00 62 1002.1
20260506185355 20 196 0.0 3.2 0.00 0.00 0.00 61 1002.1
20260506184855 20 252 0.0 4.8 0.00 0.00 0.00 60 1002.0
20260506184355 20 299 0.0 4.8 0.00 0.00 0.00 60 1001.9
20260506183855 20 232 0.0 1.6 0.00 0.00 0.00 61 1002.2
20260506183357 20 218 0.0 1.6 0.00 0.00 0.00 61 1001.8
20260506182855 20 233 0.0 3.2 0.00 0.00 0.00 60 1001.6
20260506182357 20 262 0.0 3.2 0.00 0.00 0.00 60 1001.7
20260506181932 20 249 0.0 3.2 0.00 0.00 0.00 60 1001.8
20260506181343 20 199 1.6 3.2 0.00 0.00 0.00 60 1001.5
20260506180843 20 200 3.2 4.8 0.00 0.00 0.00 61 1001.7
20260506180331 20 182 1.6 4.8 0.00 0.00 0.00 61 1001.6
20260506175830 20 237 0.0 1.6 0.00 0.00 0.00 63 1001.6
20260506175331 21 223 0.0 1.6 0.00 0.00 0.00 62 1001.6
20260506174830 21 244 0.0 1.6 0.00 0.00 0.00 60 1001.7
20260506174332 21 237 0.0 1.6 0.00 0.00 0.00 59 1001.7
20260506173332 21 170 0.0 3.2 0.00 0.00 0.00 59 1001.5
20260506172830 21 170 1.6 3.2 0.00 0.00 0.00 59 1001.5
20260506172331 22 167 3.2 3.2 0.00 0.00 0.00 59 1001.5
20260506171831 22 243 0.0 1.6 0.00 0.00 0.00 55 1001.5
20260506171331 23 276 1.6 1.6 0.00 0.00 0.00 56 1001.5
20260506170826 22 262 0.0 1.6 0.00 0.00 0.00 54 1001.5
20260506170318 22 245 0.0 1.6 0.00 0.00 0.00 55 1001.8
20260506165819 22 276 1.6 1.6 0.00 0.00 0.00 55 1001.5
20260506165318 22 252 0.0 3.2 0.00 0.00 0.00 56 1001.5
20260506164819 22 270 1.6 4.8 0.00 0.00 0.00 55 1001.7
20260506164319 22 260 0.0 6.4 0.00 0.00 0.00 55 1001.6
20260506163820 22 258 3.2 6.4 0.00 0.00 0.00 54 1001.7
20260506163319 22 243 1.6 6.4 0.00 0.00 0.00 54 1001.7
20260506162820 22 302 1.6 6.4 0.00 0.00 0.00 55 1001.7
20260506162318 22 253 0.0 6.4 0.00 0.00 0.00 55 1001.7
20260506160819 22 310 1.6 9.7 0.00 0.00 0.00 52 1001.8
20260506155819 23 271 1.6 11.3 0.00 0.00 0.00 51 1002.0
20260506155320 23 283 3.2 11.3 0.00 0.00 0.00 51 1002.0
20260506154819 23 294 1.6 11.3 0.00 0.00 0.00 51 1001.9
20260506154318 23 261 3.2 9.7 0.00 0.00 0.00 49 1002.1
20260506153329 23 265 6.4 11.3 0.00 0.00 0.00 47 1002.1
20260506152807 23 303 4.8 14.5 0.00 0.00 0.00 47 1002.2
20260506152308 23 337 4.8 14.5 0.00 0.00 0.00 46 1002.5
20260506151803 23 262 8.0 11.3 0.00 0.00 0.00 45 1002.2
20260506151256 24 328 1.6 11.3 0.00 0.00 0.00 45 1002.7
20260506150756 24 244 4.8 11.3 0.00 0.00 0.00 45 1002.6
20260506150304 24 263 3.2 11.3 0.00 0.00 0.00 46 1002.3
20260506145255 24 265 1.6 20.9 0.00 0.00 0.00 47 1002.5
20260506144756 24 233 9.7 20.9 0.00 0.00 0.00 46 1002.8
20260506144254 24 247 6.4 17.7 0.00 0.00 0.00 45 1002.8
20260506143755 23 274 6.4 17.7 0.00 0.00 0.00 45 1002.7
20260506143254 24 273 4.8 16.1 0.00 0.00 0.00 46 1002.7
20260506142755 24 271 8.0 16.1 0.00 0.00 0.00 45 1002.7
20260506142254 23 254 11.3 14.5 0.00 0.00 0.00 45 1002.9
20260506140757 24 258 1.6 17.7 0.00 0.00 0.00 47 1002.6
20260506135757 23 258 4.8 16.1 0.00 0.00 0.00 51 1002.9
20260506135256 25 203 3.2 14.5 0.00 0.00 0.00 49 1002.8
20260506134756 25 331 8.0 14.5 0.00 0.00 0.00 48 1002.8
20260506134256 24 282 8.0 16.1 0.00 0.00 0.00 49 1002.9
20260506133757 24 255 1.6 16.1 0.00 0.00 0.00 50 1002.8
20260506132255 25 319 8.0 9.7 0.00 0.00 0.00 48 1003.0
20260506131757 25 255 6.4 11.3 0.00 0.00 0.00 49 1002.9
20260506131256 23 221 3.2 12.9 0.00 0.00 0.00 50 1002.8
20260506130255 24 298 9.7 12.9 0.00 0.00 0.00 52 1003.3
20260506125757 23 351 8.0 12.9 0.00 0.00 0.00 52 1003.2
20260506125256 23 230 4.8 14.5 0.00 0.00 0.00 52 1003.3
20260506124757 24 272 3.2 14.5 0.00 0.00 0.00 51 1003.3
20260506124254 23 252 8.0 16.1 0.00 0.00 0.00 52 1003.4
20260506123756 23 271 3.2 16.1 0.00 0.00 0.00 52 1003.5
20260506123254 23 319 6.4 16.1 0.00 0.00 0.00 52 1003.6
20260506122755 23 303 6.4 16.1 0.00 0.00 0.00 53 1003.6
20260506121755 24 325 6.4 16.1 0.00 0.00 0.00 52 1003.6
20260506121255 23 234 3.2 17.7 0.00 0.00 0.00 54 1003.3
20260506120755 24 262 14.5 22.5 0.00 0.00 0.00 53 1003.6
20260506120253 23 319 9.7 22.5 0.00 0.00 0.00 53 1003.6
20260506115754 23 292 6.4 25.7 0.00 0.00 0.00 54 1003.5
20260506115253 23 329 16.1 25.7 0.00 0.00 0.00 53 1003.5
20260506114754 23 187 1.6 16.1 0.00 0.00 0.00 53 1003.4
20260506114253 23 35 1.6 20.9 0.00 0.00 0.00 54 1003.7
20260506113754 23 244 4.8 20.9 0.00 0.00 0.00 55 1003.5
20260506113253 23 2 4.8 17.7 0.00 0.00 0.00 54 1003.6
20260506112253 23 297 9.7 16.1 0.00 0.00 0.00 54 1003.2
20260506111754 23 336 1.6 16.1 0.00 0.00 0.00 56 1003.6
20260506111253 22 285 4.8 12.9 0.00 0.00 0.00 57 1003.4
20260506110253 22 259 3.2 20.9 0.00 0.00 0.00 58 1003.3
20260506105753 23 336 12.9 20.9 0.00 0.00 0.00 55 1003.7
20260506105253 23 38 9.7 17.7 0.00 0.00 0.00 55 1003.9
20260506104756 23 70 4.8 16.1 0.00 0.00 0.00 56 1003.5
20260506104253 23 341 4.8 17.7 0.00 0.00 0.00 55 1003.7
20260506103754 23 270 6.4 17.7 0.00 0.00 0.00 56 1003.7
20260506103254 22 279 4.8 14.5 0.00 0.00 0.00 59 1003.7
20260506102754 23 251 6.4 14.5 0.00 0.00 0.00 56 1003.9
20260506101755 23 354 9.7 12.9 0.00 0.00 0.00 57 1003.8
20260506101254 22 248 3.2 17.7 0.00 0.00 0.00 57 1003.7
20260506100804 21 308 12.9 20.9 0.00 0.00 0.00 59 1003.4
20260506100253 22 20 11.3 20.9 0.00 0.00 0.00 59 1003.7
20260506095755 21 285 6.4 17.7 0.00 0.00 0.00 59 1003.7
20260506094754 21 258 0.0 12.9 0.00 0.00 0.00 62 1003.4
20260506094253 21 330 4.8 14.5 0.00 0.00 0.00 61 1003.4
20260506093754 21 250 8.0 16.1 0.00 0.00 0.00 61 1003.3
20260506093253 21 287 8.0 16.1 0.00 0.00 0.00 61 1003.6
20260506091754 21 271 4.8 17.7 0.00 0.00 0.00 60 1003.4
20260506091253 21 349 1.6 17.7 0.00 0.00 0.00 61 1003.5
20260506090754 21 334 11.3 17.7 0.00 0.00 0.00 61 1003.7
20260506090252 21 214 1.6 14.5 0.00 0.00 0.00 62 1003.5
20260506085754 21 298 1.6 14.5 0.00 0.00 0.00 62 1003.3
20260506085254 21 323 6.4 14.5 0.00 0.00 0.00 61 1003.2
20260506084754 21 305 4.8 14.5 0.00 0.00 0.00 62 1003.5
20260506084253 21 7 9.7 14.5 0.00 0.00 0.00 63 1003.4
20260506083254 21 337 9.7 17.7 0.00 0.00 0.00 63 1003.0
20260506081754 20 275 4.8 14.5 0.00 0.00 0.00 64 1003.0
20260506081254 20 298 8.0 14.5 0.00 0.00 0.00 65 1003.2
20260506080756 20 311 4.8 12.9 0.00 0.00 0.00 65 1003.1
20260506080253 20 308 8.0 12.9 0.00 0.00 0.00 65 1003.2
20260506073253 19 321 8.0 12.9 0.00 0.00 0.00 66 1002.9
20260506072756 18 2 8.0 12.9 0.00 0.00 0.00 68 1003.1
20260506072255 18 264 3.2 16.1 0.00 0.00 0.00 68 1002.9
20260506071254 17 330 6.4 20.9 0.00 0.00 0.00 68 1002.9
20260506070254 17 339 4.8 14.5 0.00 0.00 0.00 68 1003.0
20260506062254 16 253 3.2 25.7 0.00 0.00 0.00 70 1002.9
20260506061754 16 333 6.4 25.7 0.00 0.00 0.00 70 1002.7
20260506061253 17 338 8.0 14.5 0.00 0.00 0.00 69 1002.7
20260506060755 16 324 9.7 14.5 0.00 0.00 0.00 70 1002.6
20260506060253 16 260 9.7 12.9 0.00 0.00 0.00 70 1002.7
20260506051252 15 259 0.0 4.8 0.00 0.00 0.00 72 1002.7
20260506050753 15 162 1.6 4.8 0.00 0.00 0.00 72 1002.5
20260506050253 15 156 1.6 3.2 0.00 0.00 0.00 71 1002.6
20260506044753 16 229 0.0 1.6 0.00 0.00 0.00 68 1002.5
20260506044253 16 227 0.0 1.6 0.00 0.00 0.00 69 1002.2
20260506043753 15 223 0.0 1.6 0.00 0.00 0.00 68 1002.3
20260506043252 15 225 0.0 1.6 0.00 0.00 0.00 69 1002.2
20260506042754 15 224 1.6 1.6 0.00 0.00 0.00 68 1002.2
20260506042253 16 234 0.0 0.0 0.00 0.00 0.00 67 1002.3
20260506041755 14 234 0.0 0.0 0.00 0.00 0.00 71 1002.1
20260506040252 12 260 0.0 1.6 0.00 0.00 0.00 75 1002.1
20260506035752 12 260 0.0 0.0 0.00 0.00 0.00 75 1002.5
20260506034753 12 251 0.0 0.0 0.00 0.00 0.00 75 1002.1
20260506034252 12 258 0.0 1.6 0.00 0.00 0.00 75 1002.0
20260506033755 12 260 0.0 1.6 0.00 0.00 0.00 75 1001.9
20260506033253 12 222 0.0 1.6 0.00 0.00 0.00 75 1002.0
20260506032755 12 203 0.0 1.6 0.00 0.00 0.00 74 1002.0
20260506032254 12 242 0.0 1.6 0.00 0.00 0.00 73 1002.0
20260506031754 12 256 0.0 3.2 0.00 0.00 0.00 73 1002.1
20260506031253 12 222 1.6 3.2 0.00 0.00 0.00 73 1001.8
20260506030254 12 225 0.0 1.6 0.00 0.00 0.00 73 1002.0
20260506025755 12 232 0.0 1.6 0.00 0.00 0.00 73 1001.9
20260506025253 12 225 0.0 1.6 0.00 0.00 0.00 72 1002.2
20260506024754 12 228 0.0 1.6 0.00 0.00 0.00 72 1002.0
20260506024254 12 233 0.0 1.6 0.00 0.00 0.00 72 1002.2
20260506023755 12 234 0.0 1.6 0.00 0.00 0.00 73 1002.1
20260506023254 12 264 0.0 1.6 0.00 0.00 0.00 72 1001.9
20260506022754 11 240 0.0 0.0 0.00 0.00 0.00 73 1002.2
20260506022253 12 239 0.0 0.0 0.00 0.00 0.00 73 1002.1
20260506021754 12 239 0.0 0.0 0.00 0.00 0.00 73 1002.3
20260506020754 12 239 0.0 0.0 0.00 0.00 0.00 73 1002.1
20260506020253 12 239 0.0 0.0 0.00 0.00 0.00 73 1002.0
20260506015754 12 240 0.0 0.0 0.00 0.00 0.00 72 1002.2
20260506015253 12 240 0.0 0.0 0.00 0.00 0.00 72 1002.5
20260506014755 12 240 0.0 0.0 0.00 0.00 0.00 72 1002.2
20260506014254 12 240 0.0 0.0 0.00 0.00 0.00 71 1002.1
20260506013755 12 240 0.0 0.0 0.00 0.00 0.00 71 1002.1
20260506012754 12 239 0.0 0.0 0.00 0.00 0.00 70 1001.9
20260506012252 13 239 0.0 1.6 0.00 0.00 0.00 69 1001.9
20260506011753 13 240 0.0 1.6 0.00 0.00 0.00 69 1001.9
20260506011252 13 239 0.0 1.6 0.00 0.00 0.00 69 1001.9
20260506010753 13 239 0.0 1.6 0.00 0.00 0.00 69 1001.9
20260506010252 13 239 0.0 0.0 0.00 0.00 0.00 69 1002.0
20260506005753 13 242 0.0 0.0 0.00 0.00 0.00 68 1001.9
20260506005254 13 242 0.0 0.0 0.00 0.00 0.00 68 1001.9
20260506004745 13 242 0.0 0.0 0.00 0.00 0.00 69 1002.0
20260506003746 13 242 0.0 0.0 0.00 0.00 0.00 68 1002.5
20260506003234 13 242 0.0 0.0 0.00 0.00 0.00 68 1002.1
20260506002733 13 242 0.0 0.0 0.00 0.00 0.00 67 1002.3
20260506002234 14 242 0.0 0.0 0.00 0.00 0.00 66 1002.5
20260506001731 14 242 0.0 0.0 0.00 0.00 0.00 65 1002.3
20260506000730 14 233 0.0 0.0 0.00 0.00 0.00 64 1002.3
20260506000230 15 233 0.0 1.6 0.00 0.00 0.00 64 1002.1
20260505235729 15 228 0.0 1.6 0.00 0.00 0.00 63 1002.5
20260505234728 15 242 0.0 3.2 0.00 0.00 0.00 61 1002.5
20260505233727 16 228 0.0 1.6 0.00 0.00 0.00 60 1002.3
20260505233230 16 210 0.0 1.6 0.00 0.00 0.00 60 1002.2
20260505232729 16 229 0.0 3.2 0.00 0.00 0.00 60 1002.3
20260505232229 16 233 0.0 3.2 0.00 0.00 0.00 60 1002.6
20260505231728 16 226 1.6 3.2 0.00 0.00 0.00 59 1002.6
20260505231229 16 28 1.6 3.2 0.00 0.00 0.00 59 1002.9
20260505230728 16 188 1.6 3.2 0.00 0.00 0.00 59 1002.7
20260505230237 16 220 0.0 3.2 0.00 0.00 0.00 59 1002.9
20260505225728 17 177 1.6 3.2 0.00 0.00 0.00 58 1002.8
20260505225229 17 152 1.6 4.8 0.00 0.00 0.00 57 1002.2
20260505224229 17 212 1.6 6.4 0.00 0.00 0.00 56 1002.7
20260505223728 17 320 1.6 6.4 0.00 0.00 0.00 56 1002.7
20260505223230 17 216 1.6 3.2 0.00 0.00 0.00 56 1002.7
20260505222729 17 46 1.6 4.8 0.00 0.00 0.00 56 1002.6
20260505221728 17 196 3.2 4.8 0.00 0.00 0.00 58 1002.9
20260505221229 17 186 3.2 4.8 0.00 0.00 0.00 60 1002.8
20260505220728 17 253 1.6 4.8 0.00 0.00 0.00 61 1002.9
20260505220229 16 172 3.2 4.8 0.00 0.00 0.00 62 1002.7
20260505215728 16 122 1.6 3.2 0.00 0.00 0.00 62 1002.8
20260505215230 16 241 0.0 3.2 0.00 0.00 0.00 62 1002.9
20260505214728 17 158 3.2 3.2 0.00 0.00 0.00 60 1003.0
20260505214229 17 142 1.6 3.2 0.00 0.00 0.00 59 1002.9
20260505213728 17 303 0.0 3.2 0.00 0.00 0.00 58 1003.0
20260505213229 17 323 1.6 4.8 0.00 0.00 0.00 58 1002.9
20260505211230 17 328 0.0 3.2 0.00 0.00 0.00 57 1003.1
20260505210729 17 347 0.0 3.2 0.00 0.00 0.00 58 1003.0
20260505210230 17 197 1.6 3.2 0.00 0.00 0.00 58 1003.2
20260505205728 17 204 0.0 3.2 0.00 0.00 0.00 58 1003.2
20260505205229 17 215 1.6 3.2 0.00 0.00 0.00 58 1003.0
20260505204728 17 241 0.0 1.6 0.00 0.00 0.00 57 1002.9
20260505204229 17 243 0.0 1.6 0.00 0.00 0.00 56 1003.0
20260505203727 17 278 0.0 1.6 0.00 0.00 0.00 56 1003.1
20260505203230 18 38 0.0 3.2 0.00 0.00 0.00 55 1003.1
20260505202728 18 156 1.6 3.2 0.00 0.00 0.00 55 1003.2
20260505202230 18 247 1.6 3.2 0.00 0.00 0.00 55 1003.1
20260505201728 18 224 0.0 3.2 0.00 0.00 0.00 55 1003.1
20260505201229 18 212 1.6 3.2 0.00 0.00 0.00 55 1003.1
20260505200728 18 178 1.6 3.2 0.00 0.00 0.00 54 1003.0
20260505200229 18 171 1.6 3.2 0.00 0.00 0.00 53 1003.1
20260505195727 18 224 0.0 3.2 0.00 0.00 0.00 53 1002.9
20260505194728 18 230 0.0 3.2 0.00 0.00 0.00 53 1002.9
20260505194230 18 224 1.6 3.2 0.00 0.00 0.00 54 1003.2
20260505193729 18 157 1.6 3.2 0.00 0.00 0.00 53 1002.8
20260505193230 19 214 0.0 1.6 0.00 0.00 0.00 52 1002.9
20260505192728 19 217 1.6 1.6 0.00 0.00 0.00 52 1003.1
20260505192229 19 208 0.0 1.6 0.00 0.00 0.00 51 1003.0
20260505191729 19 177 1.6 3.2 0.00 0.00 0.00 51 1003.0
20260505191230 19 177 1.6 3.2 0.00 0.00 0.00 51 1002.9
20260505190728 19 209 1.6 1.6 0.00 0.00 0.00 51 1003.0